WY1U-1 Weather Reports


time (UTC)temp
F
wind
direction
speed
knots
gust
knots
rain 1hr
in
rain 24hr
in
rain mn
in
humidity
%
barometer
mb
20240614123644 73 208 2.6 6.1 0.00 0.00 0.00 71 1012.9
20240614122644 72 201 1.7 5.2 0.00 0.00 0.00 72 1012.9
20240614121644 72 216 3.5 7.8 0.00 0.00 0.00 72 1013.0
20240614120644 71 202 2.6 5.2 0.00 0.00 0.00 73 1013.0
20240614115740 71 224 2.6 6.1 0.00 0.00 0.00 74 1013.0
20240614115644 71 224 2.6 6.1 0.00 0.00 0.00 74 1013.0
20240614113644 70 241 0.9 5.2 0.00 0.00 0.00 78 1012.8
20240614112644 69 191 0.9 4.3 0.00 0.00 0.00 79 1012.7
20240614111643 68 217 1.7 5.2 0.00 0.00 0.00 81 1012.7
20240614110643 68 226 1.7 6.1 0.00 0.00 0.00 83 1012.5
20240614105644 68 187 1.7 4.3 0.00 0.00 0.00 84 1012.4
20240614104643 67 183 0.9 3.5 0.00 0.00 0.00 85 1012.5
20240614103644 67 186 0.9 3.5 0.00 0.00 0.00 86 1012.5
20240614102644 66 188 0.0 2.6 0.00 0.00 0.00 87 1012.6
20240614100643 66 194 1.7 4.3 0.00 0.00 0.00 87 1012.6
20240614095643 66 203 0.9 3.5 0.00 0.00 0.00 88 1012.5
20240614094643 66 177 0.9 2.6 0.00 0.00 0.00 88 1012.5
20240614093643 66 214 0.0 1.7 0.00 0.00 0.00 87 1012.7
20240614091644 66 199 0.9 2.6 0.00 0.00 0.00 87 1012.7
20240614090644 66 178 0.0 1.7 0.00 0.00 0.00 86 1012.7
20240614085644 66 208 0.0 1.7 0.00 0.00 0.00 86 1012.8
20240614084645 66 196 0.0 2.6 0.00 0.00 0.00 86 1012.7
20240614083643 66 176 0.9 2.6 0.00 0.00 0.00 86 1012.7
20240614082644 66 0 0.0 0.0 0.00 0.00 0.00 86 1012.7
20240614081646 66 179 0.0 4.3 0.00 0.00 0.00 86 1012.6
20240614080644 66 179 0.9 4.3 0.00 0.00 0.00 86 1012.5
20240614075643 66 179 1.7 6.1 0.00 0.00 0.00 86 1012.4
20240614074644 66 188 0.9 2.6 0.00 0.00 0.00 86 1012.5
20240614073644 66 186 0.9 4.3 0.00 0.00 0.00 85 1012.7
20240614072644 66 182 0.0 1.7 0.00 0.00 0.00 85 1012.8
20240614071644 66 184 0.9 3.5 0.00 0.00 0.00 85 1012.8
20240614070644 66 190 0.9 2.6 0.00 0.00 0.00 84 1012.9
20240614065644 66 198 0.9 3.5 0.00 0.00 0.00 84 1012.9
20240614064644 66 190 0.9 3.5 0.00 0.00 0.00 84 1013.1
20240614063643 66 201 0.9 3.5 0.00 0.00 0.00 84 1013.2
20240614061644 66 196 0.0 1.7 0.00 0.00 0.00 83 1013.2
20240614060643 66 215 0.0 2.6 0.00 0.00 0.00 82 1013.3
20240614055644 66 207 0.9 2.6 0.00 0.00 0.00 82 1013.5
20240614054644 66 212 0.0 1.7 0.00 0.00 0.00 82 1013.5
20240614053645 66 216 0.0 0.9 0.00 0.00 0.00 82 1013.7
20240614052644 67 189 0.0 1.7 0.00 0.00 0.00 82 1013.8
20240614051643 67 187 0.0 0.9 0.00 0.00 0.00 81 1014.0
20240614050644 67 216 0.0 2.6 0.00 0.00 0.00 80 1014.0
20240614045644 67 180 0.9 3.5 0.00 0.00 0.00 80 1014.1
20240614044644 67 186 0.9 3.5 0.00 0.00 0.00 80 1014.2
20240614043644 67 193 1.7 3.5 0.00 0.00 0.00 80 1014.3
20240614041643 68 200 0.9 2.6 0.00 0.00 0.00 78 1014.5
20240614040643 68 195 0.9 2.6 0.00 0.00 0.00 78 1014.7
20240614035644 68 185 0.9 2.6 0.00 0.00 0.00 77 1014.7
20240614034643 68 199 0.9 4.3 0.00 0.00 0.00 77 1014.6
20240614033643 68 194 0.9 2.6 0.00 0.00 0.00 76 1014.7
20240614031643 69 200 0.9 3.5 0.00 0.00 0.00 74 1014.6
20240614030643 70 185 1.7 4.3 0.00 0.00 0.00 73 1014.5
20240614024643 70 195 1.7 3.5 0.00 0.00 0.00 72 1014.7
20240614023643 70 210 1.7 5.2 0.00 0.00 0.00 71 1014.7
20240614022644 71 193 1.7 3.5 0.00 0.00 0.00 70 1014.9
20240614014644 72 189 2.6 7.0 0.00 0.00 0.00 67 1015.2
20240614013643 72 213 2.6 7.0 0.00 0.00 0.00 65 1015.3
20240614012643 73 188 2.6 7.0 0.00 0.00 0.00 64 1015.1
20240614011644 73 213 3.5 7.0 0.00 0.00 0.00 62 1015.0
20240614010643 73 201 2.6 6.1 0.00 0.00 0.00 60 1015.1
20240614005644 74 191 2.6 8.7 0.00 0.00 0.00 58 1015.1
20240614004644 75 198 2.6 7.0 0.00 0.00 0.00 57 1014.9
20240614003643 75 219 2.6 8.7 0.00 0.00 0.00 55 1015.0
20240614002643 76 205 1.7 3.5 0.00 0.00 0.00 54 1015.0
20240614001644 76 183 0.9 2.6 0.00 0.00 0.00 53 1015.1
20240614000643 77 197 0.9 3.5 0.00 0.00 0.00 52 1015.2
20240613235643 77 205 1.7 5.2 0.00 0.00 0.00 50 1015.2
20240613234643 78 203 2.6 6.1 0.00 0.00 0.00 49 1015.2
20240613233643 78 212 2.6 7.8 0.00 0.00 0.00 48 1015.1
20240613232643 79 212 2.6 7.0 0.00 0.00 0.00 47 1015.0
20240613231644 79 202 0.9 7.0 0.00 0.00 0.00 46 1015.0
20240613230643 79 212 3.5 7.8 0.00 0.00 0.00 45 1014.8
20240613225644 80 188 2.6 7.8 0.00 0.00 0.00 45 1014.7
20240613224643 80 189 3.5 8.7 0.00 0.00 0.00 45 1014.7
20240613223643 81 210 2.6 7.8 0.00 0.00 0.00 45 1014.7
20240613222643 81 217 2.6 7.8 0.00 0.00 0.00 44 1014.7
20240613221643 82 196 1.7 7.0 0.00 0.00 0.00 44 1014.6
20240613220644 82 210 3.5 12.2 0.00 0.00 0.00 43 1014.5
20240613214644 83 197 2.6 7.0 0.00 0.00 0.00 43 1014.5
20240613213644 82 200 3.5 8.7 0.00 0.00 0.00 43 1014.4
20240613211724 84 183 2.6 8.7 0.00 0.00 0.00 43 1014.6
20240613210643 84 183 2.6 8.7 0.00 0.00 0.00 43 1014.6
20240613205643 83 189 2.6 8.7 0.00 0.00 0.00 44 1014.7
20240613204644 83 198 2.6 9.6 0.00 0.00 0.00 46 1014.7
20240613203643 82 215 1.7 7.0 0.00 0.00 0.00 48 1014.7
20240613202643 83 195 3.5 9.6 0.00 0.00 0.00 46 1014.7
20240613201644 83 199 3.5 7.8 0.00 0.00 0.00 46 1014.8
20240613200644 83 205 3.5 12.2 0.00 0.00 0.00 46 1014.8
20240613195643 83 242 3.5 9.6 0.00 0.00 0.00 47 1015.0
20240613194644 82 218 3.5 10.4 0.00 0.00 0.00 48 1015.1
20240613193643 83 198 4.3 8.7 0.00 0.00 0.00 44 1015.1
20240613192644 85 190 3.5 12.2 0.00 0.00 0.00 41 1015.1
20240613191644 85 174 3.5 7.8 0.00 0.00 0.00 40 1015.1
20240613190933 84 181 2.6 7.0 0.00 0.00 0.00 40 1015.2
20240613190643 84 181 2.6 7.0 0.00 0.00 0.00 40 1015.2
20240613185644 84 202 2.6 7.0 0.00 0.00 0.00 41 1015.3
20240613184644 84 205 2.6 8.7 0.00 0.00 0.00 40 1015.3
20240613183644 84 212 3.5 10.4 0.00 0.00 0.00 41 1015.4
20240613182644 84 213 3.5 10.4 0.00 0.00 0.00 41 1015.4
20240613181643 85 176 1.7 7.0 0.00 0.00 0.00 42 1015.4
20240613180644 84 176 1.7 4.3 0.00 0.00 0.00 44 1015.5
20240613175644 83 181 2.6 5.2 0.00 0.00 0.00 46 1015.6
20240613174643 83 204 2.6 6.1 0.00 0.00 0.00 47 1015.6
20240613173643 83 254 1.7 6.1 0.00 0.00 0.00 46 1015.6
20240613172644 84 190 1.7 5.2 0.00 0.00 0.00 48 1015.7
20240613171644 82 148 0.9 2.6 0.00 0.00 0.00 50 1015.8
20240613162645 84 208 1.7 5.2 0.00 0.00 0.00 43 1016.3
20240613161644 82 171 0.9 4.3 0.00 0.00 0.00 43 1016.3
20240613160644 81 270 1.7 4.3 0.00 0.00 0.00 45 1016.3
20240613155643 82 288 1.7 5.2 0.00 0.00 0.00 43 1016.3
20240613154643 81 177 0.9 5.2 0.00 0.00 0.00 44 1016.3
20240613153643 81 233 0.9 2.6 0.00 0.00 0.00 45 1016.4
20240613152643 81 214 1.7 6.1 0.00 0.00 0.00 48 1016.5
20240613150643 80 174 1.7 5.2 0.00 0.00 0.00 50 1016.7
20240613145644 78 161 0.9 4.3 0.00 0.00 0.00 53 1016.8
20240613143644 77 231 1.7 3.5 0.00 0.00 0.00 58 1016.8
20240613132644 71 231 0.9 4.3 0.00 0.00 0.00 70 1017.3
20240613131645 70 231 0.0 3.5 0.00 0.00 0.00 76 1017.3
20240613130643 69 175 0.0 1.7 0.00 0.00 0.00 78 1017.3